Pian Rosa, Italy

6:11 PM CEST on August 20, 2017 (GMT +0200)
Pian Rosa

Weather History for LIMH - September, 2013

Change the Weather History Date:

Thursday, September 19, 2013

  Actual Average Record
Temperature  
Mean Temperature 26 °F -  
Max Temperature 30 °F 31 °F 39 °F (2004)
Min Temperature 23 °F 23 °F 14 °F (2011)
Degree Days  
Heating Degree Days 38    
Moisture  
Dew Point -7 °F    
Average Humidity 26    
Maximum Humidity 86    
Minimum Humidity 4    
Precipitation  
Precipitation 0.00 in - - ()
Sea Level Pressure  
Sea Level Pressure 30.07 in    
Wind  
Wind Speed 30 mph ()    
Max Wind Speed 52 mph    
Max Gust Speed 68 mph    
Visibility 6.8 miles    
Events      
Averages and records for this station are not official NWS values.
T = Trace of Precipitation, MM = Missing Value Source: Averaged Metar Reports

Daily Weather History Graph

Daily Weather History Graph

Search for Another Location

Airport or City:

Trip Planner

Search our weather history database for the weather conditions in past years. The results will help you decide how hot, cold, wet, or windy it might be!

Date:

Astronomy

Sep. 19, 2013 Rise Set
Actual Time 7:12 AM CEST 7:32 PM CEST
Civil Twilight 6:42 AM CEST 8:02 PM CEST
Nautical Twilight 6:07 AM CEST 8:37 PM CEST
Astronomical Twilight 5:30 AM CEST 9:13 PM CEST
Moon 7:17 PM CEST (9/19) 7:05 AM CEST (9/19)
Length of Visible Light 13h 19m
Length of Day
12h 20m
Full, 100% of the Moon is Illuminated
Sep 19
Full
Sep 19
Full
Sep 27
Last Quarter
Oct 5
New
Oct 12
First Quarter

Hourly Weather History & Observations

Time (CEST) Temp. Windchill Dew Point Humidity Pressure Visibility Wind Dir Wind Speed Gust Speed Precip Events Conditions
12:55 AM 24.8 °F 7.1 °F 21.2 °F 86% 29.95 in 3.7 mi NNE 33.4 mph - N/A   Scattered Clouds
1:55 AM 24.8 °F 6.8 °F 15.8 °F 69% 29.95 in 6.2 mi NE 34.5 mph - N/A   Scattered Clouds
2:00 AM 25 °F - 16 °F 56%  in 6 mi NE 34.5 mph - -   Partly Cloudy
2:55 AM 23.0 °F 3.4 °F 17.6 °F 80% 29.95 in 6.2 mi NE 39.1 mph - N/A   Partly Cloudy
3:55 AM 24.8 °F 6.2 °F 21.2 °F 86% 29.95 in 6.2 mi NE 38.0 mph 49.5 mph N/A   Partly Cloudy
4:55 AM 26.6 °F 7.9 °F 1.4 °F 34% 29.95 in 6.2 mi NE 42.6 mph 57.5 mph N/A   Partly Cloudy
5:00 AM 26 °F - 1 °F 20%  in 6 mi NE 42.6 mph - -   Scattered Clouds
5:55 AM 24.8 °F 4.8 °F -7.6 °F 24% 29.92 in - NE 46.0 mph - N/A   Clear
6:55 AM 24.8 °F 3.9 °F -9.4 °F 22% 29.95 in - NE 51.8 mph 64.4 mph N/A   Clear
7:55 AM 24.8 °F 6.4 °F -20.2 °F 13% 29.98 in - ENE 36.8 mph 51.8 mph N/A   Clear
8:00 AM 25 °F - -21 °F 4%  in 31 mi ENE 36.8 mph - -  
8:55 AM 26.6 °F 8.3 °F -22.0 °F 11% 29.98 in - ENE 40.3 mph 67.9 mph N/A   Clear
9:55 AM 28.4 °F 11.2 °F -22.0 °F 10% 30.01 in - ENE 38.0 mph 55.2 mph N/A   Clear
10:55 AM 28.4 °F 12.5 °F -20.2 °F 11% 30.04 in - ENE 31.1 mph 44.9 mph N/A   Clear
11:00 AM 29 °F - -21 °F 4%  in 31 mi ENE 31.1 mph - -  
11:55 AM 26.6 °F 9.1 °F -22.0 °F 11% 30.04 in - ENE 35.7 mph - N/A   Clear
12:55 PM 28.4 °F 11.2 °F -22.0 °F 10% 30.06 in - NE 38.0 mph - N/A   Clear
1:55 PM 28.4 °F 11.2 °F -22.0 °F 10% 30.09 in - ENE 38.0 mph 51.8 mph N/A   Clear
2:00 PM 28 °F - -21 °F 4%  in 31 mi ENE 38.0 mph - -   Clear
2:55 PM 26.6 °F 9.8 °F -14.8 °F 16% 30.09 in - ENE 32.2 mph - N/A   Clear
3:55 PM 28.4 °F 13.8 °F -7.6 °F 21% 30.12 in - NE 25.3 mph 40.3 mph N/A   Clear
4:55 PM 28.4 °F 15.8 °F -7.6 °F 21% 30.15 in - NNE 18.4 mph - N/A   Clear
5:00 PM 29 °F - -7 °F 9%  in 31 mi NNE 18.4 mph - -   Clear
5:55 PM 28.4 °F 14.1 °F -4.0 °F 25% 30.15 in - NE 24.2 mph - N/A   Clear
6:55 PM 28.4 °F 14.4 °F -5.8 °F 23% 30.18 in - NE 23.0 mph - N/A   Clear
7:55 PM 30.2 °F 17.1 °F -2.2 °F 25% 30.18 in - NE 21.9 mph - N/A   Clear
8:00 PM 29 °F - -2 °F 13%  in 12 mi NE 21.9 mph - -   Clear
8:55 PM 28.4 °F 14.7 °F -2.2 °F 27% 30.24 in - NE 21.9 mph - N/A   Clear
9:55 PM 28.4 °F 15.4 °F -5.8 °F 23% 30.24 in - NE 19.6 mph - N/A   Clear
10:55 PM 26.6 °F 16.2 °F -5.8 °F 24% 30.24 in - ENE 11.5 mph - N/A   Clear
11:00 PM 27 °F - -7 °F 11%  in 9 mi ENE 11.5 mph - -   Clear
11:55 PM 28.4 °F 18.5 °F -7.6 °F 21% 30.24 in - ENE 11.5 mph - N/A   Clear